Wind_Speed
26 25 23 23 23 23 23 22 21 19 18 17 16 15 14 11 9 9 7 6 6 5 5 6 10 14 16 19 18 20 15 19 13 13 16 16 18 14 17 14 15 18 18 21 20 18 17 15 13 16 16 14 12 9
27 24 22 21 20 19 20 20 21 21 20 19 18 17 16 13 11 9 9 7 6 7 6 5 6 8 14 16 18 19 20 14 18 17 13 12 11 12 15 18 17 14 17 15 14 8 15 13 14 15 15 15 22 27
27 25 23 21 19 18 18 18 18 19 20 20 19 18 17 15 13 10 9 8 7 6 6 7 5 6 9 13 17 17 20 21 17 22 18 17 13 16 17 19 12 16 18 16 14 16 19 17 21 26 31 30 24 22
27 26 25 23 21 19 19 18 17 16 16 17 16 16 15 14 12 11 10 9 8 6 6 8 7 5 4 8 13 16 17 19 22 17 16 14 7 18 12 17 17 15 15 15 17 24 25 24 25 19 13 15 17 19
28 28 28 26 25 24 23 21 19 17 16 15 15 14 13 13 12 10 9 9 9 8 4 7 6 5 5 5 7 13 12 16 18 17 14 9 12 12 12 17 16 15 15 14 18 21 18 20 18 14 16 17 17 17
26 28 28 27 26 26 25 22 20 19 17 15 15 14 12 11 12 11 10 9 9 9 9 5 8 7 5 5 7 8 10 12 14 18 13 19 23 16 11 17 16 13 20 22 24 25 24 18 17 18 18 18 17 14
21 20 20 22 24 24 22 21 18 18 19 17 16 14 11 11 12 12 11 8 8 8 7 5 6 10 10 7 7 9 8 8 12 13 15 15 11 20 18 22 15 14 21 23 27 25 21 21 22 19 21 23 22 21
14 13 14 14 12 15 16 16 17 16 17 17 16 13 12 12 11 12 12 11 10 8 7 6 4 6 5 6 6 8 8 10 13 11 13 12 10 16 12 16 18 18 18 24 28 31 35 36 35 27 25 25 25 21
14 14 15 16 14 13 13 13 13 14 14 14 14 13 11 11 11 11 10 9 9 10 8 8 6 6 9 8 6 5 5 3 10 10 9 10 12 13 15 16 14 13 15 18 20 22 25 27 27 31 35 33 31 28
15 14 14 17 14 13 14 13 14 14 14 14 12 8 8 11 11 10 9 9 9 11 11 10 12 5 9 9 6 4 4 5 4 7 8 13 19 19 17 14 16 20 22 21 23 22 23 24 24 25 26 29 40 35
13 17 13 18 14 15 14 15 17 15 13 12 10 9 7 8 9 10 8 7 7 5 9 16 17 9 13 6 5 6 4 4 4 7 6 10 12 11 20 16 18 19 19 20 22 24 25 24 22 22 23 22 21 32
14 15 12 13 15 15 17 18 18 14 11 14 13 9 8 6 6 6 7 6 6 6 5 7 10 16 14 12 9 7 5 5 5 9 6 8 10 21 23 24 22 22 21 22 23 24 24 22 21 24 25 22 22 19
13 14 14 12 15 17 17 17 18 18 19 16 18 14 7 7 6 6 7 7 6 6 9 9 6 7 8 9 7 5 5 5 8 6 8 9 15 19 19 21 24 26 29 31 32 31 27 21 23 22 22 21 23 23
6 9 13 17 21 19 19 20 23 23 24 20 13 11 7 4 5 4 6 6 10 9 9 9 6 5 6 3 4 3 5 5 5 6 10 10 18 21 25 27 28 23 25 28 32 28 24 23 22 23 23 21 22 19
10 11 16 18 20 23 20 22 26 24 17 17 7 6 6 5 5 7 7 8 10 12 10 5 5 4 3 3 3 4 4 5 6 6 12 16 29 30 29 29 33 37 33 25 19 20 19 17 15 17 18 17 16 18
15 17 17 21 24 23 24 25 23 21 12 11 5 6 7 6 4 3 6 7 8 8 10 8 5 2 5 4 4 5 4 4 8 23 22 25 26 24 21 19 18 11 10 11 11 12 11 8 6 6 6 10 12 15
19 18 19 25 22 22 22 21 20 14 9 7 5 5 5 6 5 6 9 9 12 11 7 5 4 4 2 3 4 5 6 14 12 18 23 18 9 11 8 3 2 10 10 12 12 11 10 8 9 9 12 14 16 16
14 17 20 22 22 21 18 15 16 5 6 8 7 5 5 9 7 8 12 12 11 11 11 9 6 8 4 4 5 12 7 6 13 12 17 16 9 3 10 10 6 10 11 10 10 9 8 8 7 6 9 11 14 16
17 17 18 18 17 15 17 15 9 5 7 9 6 7 8 8 9 10 10 12 12 10 13 10 7 9 7 11 5 7 6 12 12 10 12 20 23 24 22 15 13 10 9 3 3 5 8 10 10 11 13 12 13 12
19 18 17 18 15 10 6 6 11 5 3 5 7 9 10 10 9 9 11 11 11 10 13 17 11 6 8 4 6 6 8 7 8 11 11 15 15 16 14 14 12 13 9 7 4 3 2 4 6 9 10 10 6 8
13 11 9 8 6 5 4 3 7 5 7 7 5 8 10 13 13 14 13 12 13 15 17 12 8 7 6 5 9 9 9 6 7 9 8 6 7 8 7 8 9 7 5 3 4 8 6 5 7 6 6 5 8 7
5 4 4 2 1 4 3 4 5 4 2 2 3 3 3 5 7 10 13 15 14 9 6 11 11 11 9 8 7 6 6 4 4 4 3 3 5 7 8 11 10 10 8 8 8 6 7 6 5 5 5 8 9 8
6 5 3 2 1 1 4 6 5 6 9 16 11 7 7 9 8 8 5 3 22 20 16 15 16 11 7 5 4 3 6 8 7 5 6 5 7 12 8 10 11 10 9 10 13 10 9 13 12 9 8 10 10 9
18 13 10 10 12 18 20 17 17 14 12 11 16 13 15 19 23 25 30 27 23 19 16 11 8 7 5 2 3 5 7 10 9 9 9 5 9 10 14 13 11 11 13 15 13 12 11 11 13 11 11 11 11 11
19 18 20 21 20 21 24 24 22 22 22 25 37 27 32 31 30 28 22 19 16 14 12 11 8 6 5 5 6 7 8 6 6 7 12 11 9 9 10 11 12 13 12 12 11 11 11 12 12 12 12 12 13 14
17 15 19 23 23 19 17 16 19 20 18 17 19 23 19 16 19 17 16 13 12 10 9 8 6 6 6 5 3 5 7 8 9 7 10 12 12 12 12 12 11 13 17 14 13 13 14 14 14 14 13 14 14 15
19 16 17 16 15 16 15 14 13 13 12 11 10 9 9 8 11 13 9 5 7 7 6 5 5 5 5 6 9 12 12 12 13 13 14 15 15 15 15 14 14 15 20 21 20 19 18 17 17 17 17 17 17 18
22 18 20 19 20 21 20 18 17 15 14 11 8 8 7 7 8 10 12 14 17 17 16 14 11 9 9 9 10 10 11 11 12 13 13 12 13 15 15 15 16 18 19 19 19 20 20 19 19 19 19 19 19 19
16 15 18 18 19 24 23 22 18 18 15 14 18 19 18 18 17 14 14 15 15 11 11 11 13 11 11 12 13 14 15 16 18 18 18 17 15 15 18 21 23 24 24 24 24 23 23 24 24 25 25 25 24 24
18 15 19 20 23 24 22 20 21 21 20 19 18 18 14 12 11 11 11 10 10 12 14 14 13 13 13 13 14 16 15 20 23 24 25 25 25 25 26 26 28 29 30 31 32 32 33 34 33 33 33 31 31 33
14 13 15 16 18 17 16 16 15 14 14 13 12 11 10 11 14 15 14 15 14 11 15 14 14 19 20 21 22 22 22 23 24 25 26 27 28 29 30 30 30 30 30 30 32 33 34 35 37 40 41 43 43 36
12 12 10 11 11 14 12 10 10 11 11 11 11 10 10 8 8 12 17 16 16 19 22 22 22 23 25 25 26 27 28 29 29 31 33 34 35 36 36 36 35 34 34 33 32 32 32 32 32 33 35 36 37 37
7 6 6 6 7 7 8 7 5 5 6 6 6 6 7 7 7 13 21 23 23 24 25 25 26 27 29 30 30 31 32 33 35 36 35 35 36 35 32 30 30 30 30 30 30 30 28 27 26 26 27 27 26 27
Wind_Direction
272 271 270 269 267 263 261 258 258 258 258 256 256 258 258 259 248 241 241 230 227 226 237 228 224 219 217 219 215 224 226 229 218 212 223 221 229 219 223 230 217 223 228 227 238 252 238 240 239 231 250 256 263 261
264 263 264 263 263 262 261 258 254 253 252 252 251 251 254 255 256 242 234 230 229 230 234 244 236 229 221 218 220 213 212 216 215 201 216 218 221 232 221 225 228 224 226 239 222 247 227 239 229 237 237 250 274 280
260 258 256 257 258 257 258 260 256 250 249 248 246 244 245 246 249 251 239 226 226 234 254 254 255 239 226 221 219 212 215 215 217 218 218 218 219 223 232 236 230 237 233 227 236 245 248 258 268 273 281 287 283 265
258 257 257 256 257 259 258 258 257 249 242 238 236 235 236 240 240 243 245 237 223 219 230 240 240 238 235 221 218 221 218 213 218 217 216 215 219 220 227 227 230 243 237 240 249 261 263 270 273 275 272 269 263 261
256 256 255 255 258 260 260 257 255 250 239 234 233 231 230 234 239 240 241 238 231 215 197 204 232 230 238 233 217 216 216 212 215 220 225 229 233 227 246 237 238 248 242 246 261 253 253 252 265 255 260 259 256 256
259 255 255 255 253 252 255 253 248 249 245 236 231 229 227 226 231 237 245 240 233 228 224 231 241 234 235 235 225 219 219 216 213 217 228 234 239 237 245 244 237 238 242 244 247 250 256 251 240 252 254 252 245 248
262 257 254 251 248 247 244 246 243 239 240 238 236 231 227 225 225 224 227 228 224 218 207 204 249 236 228 222 220 222 227 221 216 221 230 231 243 240 247 245 242 261 252 251 254 259 244 230 241 248 250 246 243 240
253 253 246 242 237 239 238 232 233 226 228 229 232 230 224 222 221 219 220 221 220 210 190 189 210 222 202 202 225 224 226 228 233 230 244 241 237 247 248 255 258 262 262 253 255 257 262 260 259 251 250 243 238 232
253 247 239 225 219 231 210 209 214 216 212 212 213 214 219 220 217 216 214 213 212 206 186 182 163 213 214 217 214 219 221 236 246 244 242 245 237 234 257 262 266 263 255 256 257 261 263 267 268 265 255 246 243 235
249 238 232 209 200 195 199 198 197 209 198 196 190 183 212 212 209 206 208 214 219 221 214 205 197 197 190 208 226 216 239 214 249 257 243 264 259 249 258 263 271 275 270 264 262 259 257 259 266 271 267 257 244 239
235 238 226 203 205 198 208 188 184 195 187 174 182 172 203 190 185 185 189 186 199 208 218 220 208 206 214 198 213 218 224 226 242 242 240 259 276 259 267 272 271 268 265 261 261 261 262 264 266 272 272 276 261 252
234 213 192 200 203 194 187 175 181 177 166 173 168 165 167 168 171 172 181 194 187 196 224 189 209 208 222 220 214 232 222 236 231 246 246 259 248 249 262 267 269 270 266 259 255 263 267 274 272 264 265 273 266 259
222 204 191 197 189 187 174 169 165 164 154 157 167 170 176 197 186 180 189 177 184 189 196 186 172 176 191 196 199 210 226 238 260 244 242 244 259 261 260 255 259 266 269 272 272 263 267 264 261 260 275 261 269 271
194 187 191 191 189 181 176 168 165 164 162 160 157 170 182 188 186 179 178 181 204 169 164 157 167 165 190 172 203 219 234 253 250 248 268 286 269 272 270 266 269 266 275 275 269 264 261 254 264 271 276 257 271 230
108 143 153 159 171 174 172 170 167 165 152 170 156 175 185 177 184 194 194 205 190 179 168 172 188 170 203 206 216 227 237 236 238 267 292 282 273 283 278 276 274 276 279 270 257 249 249 253 261 257 248 257 252 224
103 125 116 139 146 147 156 160 165 161 133 162 166 163 179 179 205 204 188 177 173 174 170 171 192 199 207 218 220 220 245 251 284 296 305 301 297 295 270 291 289 271 231 191 186 199 206 184 198 216 226 241 249 265
109 101 110 147 140 144 153 163 164 162 156 169 164 164 170 183 187 199 175 172 178 167 181 182 188 213 193 232 237 231 257 327 326 323 321 323 342 346 269 266 234 158 180 176 165 176 192 213 230 251 258 261 265 257
108 109 113 122 129 135 144 152 165 173 191 155 156 189 180 174 162 181 177 180 178 186 195 201 187 203 211 239 249 273 320 339 341 355 20 47 35 104 160 152 171 160 141 137 156 177 187 200 206 230 255 255 260 265
118 119 118 121 125 132 139 156 173 167 177 194 192 190 188 174 176 180 185 189 194 206 208 214 235 243 246 252 310 27 53 27 3 53 42 51 48 39 53 97 151 123 82 101 192 244 255 258 257 256 256 257 260 260
106 111 115 125 123 130 142 176 189 199 193 219 214 217 205 206 211 209 211 218 225 230 232 230 244 266 258 340 340 52 80 45 37 63 57 69 63 62 57 67 71 63 51 47 39 48 354 317 276 263 252 248 243 259
94 100 109 126 153 172 178 203 216 242 239 233 201 205 225 231 239 240 237 242 244 236 232 231 237 268 115 100 100 80 77 59 62 97 102 80 56 39 30 24 20 9 24 14 356 326 325 297 283 275 280 262 265 266
70 96 110 120 153 220 207 225 216 231 259 241 185 177 171 207 210 211 209 216 221 201 166 176 167 134 130 129 111 83 61 58 16 72 79 74 4 335 339 336 341 336 325 329 330 324 312 305 294 295 296 266 262 254
13 4 355 33 65 47 60 95 96 136 127 130 142 137 164 173 185 193 193 148 86 92 120 133 136 134 129 113 71 31 17 19 355 337 313 318 317 325 331 331 330 324 312 307 306 315 295 298 307 301 279 280 273 269
33 33 47 52 68 67 68 78 118 125 123 109 82 91 82 70 74 74 88 90 90 94 103 116 108 103 115 67 11 346 345 345 359 340 326 325 321 315 311 321 323 323 323 326 320 311 304 299 296 295 287 278 275 271
50 38 46 51 66 75 84 83 87 86 77 107 103 99 93 92 88 78 76 75 68 69 67 68 64 60 48 25 7 350 338 353 333 342 320 325 331 333 328 320 326 321 323 324 322 318 315 310 307 300 289 280 276 272
63 56 72 72 68 68 77 81 91 89 89 92 95 101 89 72 66 63 62 53 49 49 50 56 64 42 7 12 13 341 334 336 335 340 314 319 321 317 313 314 318 321 316 322 319 318 316 313 311 309 303 292 285 277
70 76 77 64 63 73 76 81 81 78 85 84 84 73 70 66 53 53 54 40 20 22 16 13 8 6 351 337 331 332 329 329 329 329 329 326 322 320 318 311 299 299 306 313 316 316 314 313 312 309 305 300 295 290
66 62 74 72 73 70 66 69 69 60 54 53 83 82 83 92 76 62 65 66 64 53 51 49 46 38 26 18 14 11 8 3 356 357 355 349 341 340 338 328 321 317 315 315 314 311 308 306 306 306 306 304 299 293
75 78 70 78 82 73 59 61 71 73 79 85 88 86 87 86 85 75 65 57 52 38 39 35 38 30 17 9 360 355 345 342 342 340 336 330 325 317 310 316 317 316 314 312 311 310 309 304 301 298 299 301 297 295
71 81 90 83 78 74 75 72 75 78 78 73 72 75 76 75 67 56 48 39 37 23 18 12 5 2 1 353 344 341 339 329 330 327 325 324 321 317 313 309 304 302 299 299 297 295 295 297 297 295 295 290 288 291
76 80 83 79 76 77 74 67 61 66 68 73 79 75 78 65 43 48 42 38 26 5 3 2 352 347 347 343 340 339 338 333 330 328 324 322 320 318 315 313 310 307 304 298 294 293 292 286 282 285 287 289 293 291
83 80 70 68 67 68 69 71 68 62 62 56 64 58 58 46 35 15 14 14 4 357 355 355 353 349 347 344 340 337 336 333 328 325 322 320 318 316 314 312 310 307 306 306 305 301 298 298 298 296 294 292 290 290
65 51 44 42 37 31 19 31 34 33 47 47 41 35 27 24 9 1 357 356 356 355 353 351 348 344 341 339 337 334 331 327 323 319 317 316 315 315 316 315 313 310 310 311 311 310 306 302 299 298 297 295 291 290
Height
3042 3042 3042 3043 3043 3044 3045 3047 3048 3049 3051 3052 3052 3053 3054 3056 3058 3059 3060 3061 3062 3063 3064 3064 3065 3067 3069 3072 3076 3078 3085 3085 3089 3092 3094 3094 3096 3096 3100 3101 3103 3106 3108 3107 3111 3110 3114 3113 3117 3122 3120 3120 3121 3122
3034 3034 3035 3036 3037 3037 3038 3040 3041 3043 3045 3046 3048 3049 3050 3052 3053 3056 3058 3058 3059 3061 3062 3062 3063 3063 3065 3068 3070 3073 3077 3079 3081 3087 3090 3090 3094 3094 3096 3097 3100 3104 3103 3104 3107 3108 3107 3109 3111 3112 3113 3114 3115 3115
3025 3027 3028 3029 3030 3031 3032 3033 3035 3037 3038 3040 3042 3044 3045 3047 3049 3052 3054 3055 3057 3058 3060 3060 3060 3061 3062 3063 3066 3069 3071 3074 3077 3080 3083 3086 3090 3091 3093 3096 3095 3096 3098 3101 3103 3104 3103 3106 3107 3107 3106 3106 3106 3105
3016 3018 3020 3021 3023 3025 3026 3028 3029 3031 3033 3035 3037 3039 3041 3043 3045 3048 3050 3052 3054 3056 3057 3057 3057 3058 3059 3061 3062 3064 3067 3070 3073 3076 3078 3081 3086 3086 3090 3089 3092 3093 3094 3096 3097 3098 3099 3100 3100 3100 3101 3100 3100 3099
3007 3009 3011 3014 3016 3017 3019 3021 3023 3025 3027 3030 3033 3035 3038 3040 3042 3044 3046 3048 3050 3055 3054 3054 3055 3056 3057 3058 3059 3061 3064 3067 3070 3074 3076 3081 3079 3083 3083 3084 3088 3090 3092 3093 3093 3090 3092 3094 3094 3095 3095 3095 3095 3094
2997 2999 3002 3004 3007 3010 3012 3014 3017 3019 3022 3026 3028 3032 3034 3037 3039 3041 3043 3046 3047 3049 3052 3054 3054 3054 3055 3056 3057 3059 3061 3064 3067 3068 3072 3072 3074 3079 3080 3081 3084 3083 3083 3084 3084 3085 3085 3087 3088 3088 3090 3090 3090 3090
2990 2991 2993 2995 2998 3002 3005 3008 3011 3014 3017 3020 3023 3027 3030 3033 3036 3039 3042 3043 3044 3046 3048 3051 3051 3051 3053 3055 3056 3058 3059 3061 3064 3066 3067 3070 3072 3072 3073 3074 3079 3076 3077 3079 3078 3078 3079 3079 3080 3083 3083 3084 3084 3085
2984 2986 2988 2990 2993 2996 2999 3003 3006 3010 3013 3016 3020 3023 3026 3029 3033 3036 3038 3040 3041 3044 3046 3048 3050 3051 3051 3053 3056 3056 3058 3059 3060 3063 3064 3066 3068 3067 3066 3068 3069 3069 3070 3070 3070 3070 3070 3072 3073 3076 3076 3077 3077 3079
2979 2982 2983 2986 2989 2992 2995 2999 3003 3006 3010 3013 3017 3020 3023 3026 3030 3032 3035 3037 3039 3043 3043 3045 3049 3053 3050 3051 3053 3055 3056 3059 3058 3059 3061 3063 3063 3061 3061 3061 3063 3064 3065 3064 3064 3063 3062 3062 3063 3064 3066 3069 3070 3072
2974 2977 2979 2982 2985 2989 2992 2996 3000 3004 3007 3011 3016 3021 3023 3024 3027 3031 3033 3035 3036 3038 3040 3042 3044 3048 3050 3050 3052 3056 3056 3060 3060 3060 3057 3054 3053 3057 3057 3056 3056 3055 3055 3055 3055 3056 3056 3056 3056 3056 3056 3058 3060 3062
2969 2972 2975 2979 2983 2986 2991 2994 2998 3002 3005 3011 3015 3020 3021 3024 3027 3029 3031 3033 3035 3036 3037 3038 3042 3045 3047 3050 3053 3053 3054 3055 3057 3057 3056 3052 3050 3050 3046 3048 3048 3047 3047 3047 3047 3048 3048 3048 3048 3048 3048 3048 3049 3050
2966 2968 2972 2976 2980 2984 2988 2992 2998 3002 3007 3011 3016 3019 3021 3024 3026 3028 3030 3031 3032 3036 3034 3037 3039 3042 3044 3047 3050 3051 3053 3053 3052 3050 3050 3046 3047 3041 3041 3040 3040 3040 3040 3039 3039 3039 3040 3040 3040 3040 3040 3040 3040 3042
2962 2966 2969 2974 2978 2983 2987 2992 2997 3002 3006 3010 3015 3018 3021 3023 3023 3025 3026 3028 3031 3030 3032 3035 3039 3042 3043 3046 3048 3049 3049 3050 3046 3045 3042 3043 3038 3036 3036 3035 3035 3034 3033 3032 3031 3032 3032 3033 3033 3033 3033 3034 3034 3034
2959 2962 2965 2970 2976 2982 2987 2992 2997 3001 3006 3011 3014 3017 3019 3020 3021 3025 3027 3029 3028 3030 3033 3037 3039 3042 3042 3045 3046 3048 3048 3046 3045 3042 3039 3039 3033 3029 3027 3026 3025 3024 3024 3023 3023 3024 3025 3027 3027 3028 3028 3028 3028 3028
2960 2962 2966 2971 2976 2983 2988 2993 2998 3003 3008 3012 3015 3016 3018 3021 3021 3022 3024 3025 3027 3029 3033 3037 3039 3041 3043 3044 3044 3045 3045 3041 3039 3038 3036 3032 3025 3021 3019 3018 3016 3014 3014 3013 3015 3017 3019 3020 3021 3021 3022 3024 3024 3025
2968 2969 2972 2975 2980 2986 2990 2995 3001 3006 3009 3012 3014 3015 3017 3020 3023 3022 3023 3026 3028 3031 3034 3036 3038 3040 3041 3042 3041 3041 3040 3038 3037 3031 3026 3020 3015 3011 3010 3010 3006 3003 3006 3008 3010 3012 3014 3016 3017 3018 3019 3021 3022 3022
2977 2977 2977 2980 2987 2991 2996 3000 3004 3008 3011 3012 3014 3015 3017 3019 3023 3023 3024 3028 3028 3031 3034 3036 3037 3038 3039 3039 3038 3038 3036 3033 3028 3025 3020 3014 3008 3006 3005 3005 3004 3005 3006 3007 3008 3010 3012 3014 3015 3016 3016 3017 3018 3019
2983 2985 2987 2990 2993 2996 3001 3004 3008 3010 3011 3012 3014 3016 3017 3018 3021 3022 3024 3027 3030 3031 3033 3034 3035 3035 3037 3037 3036 3034 3032 3030 3027 3023 3019 3012 3008 3005 3004 3006 3007 3008 3007 3006 3009 3010 3012 3013 3014 3015 3016 3016 3016 3015
2989 2991 2993 2996 2999 3002 3005 3008 3010 3011 3011 3013 3015 3016 3017 3019 3020 3023 3025 3027 3029 3030 3031 3032 3032 3032 3033 3032 3030 3029 3029 3028 3026 3022 3019 3016 3014 3010 3003 3004 3007 3008 3009 3010 3011 3012 3012 3013 3012 3013 3013 3013 3012 3012
2996 2997 2998 3001 3003 3005 3007 3008 3009 3010 3012 3013 3014 3015 3017 3019 3020 3021 3024 3026 3027 3028 3030 3029 3030 3030 3029 3029 3029 3028 3029 3029 3027 3024 3023 3021 3021 3020 3019 3017 3016 3015 3016 3014 3013 3013 3012 3012 3011 3010 3009 3009 3009 3008
3002 3003 3004 3005 3006 3007 3008 3008 3008 3009 3010 3011 3012 3014 3015 3017 3018 3020 3023 3023 3025 3025 3026 3027 3028 3029 3029 3030 3029 3029 3029 3028 3027 3026 3026 3026 3024 3023 3022 3020 3019 3018 3018 3017 3016 3013 3011 3011 3009 3006 3006 3006 3005 3004
3005 3005 3005 3006 3007 3007 3006 3007 3007 3009 3010 3010 3012 3013 3013 3014 3016 3017 3020 3021 3021 3022 3024 3025 3027 3029 3030 3030 3030 3030 3030 3029 3029 3028 3027 3026 3026 3024 3022 3020 3019 3017 3016 3015 3013 3012 3010 3007 3006 3005 3004 3003 3000 3001
3005 3005 3005 3005 3005 3006 3008 3005 3006 3007 3010 3012 3012 3012 3012 3013 3015 3016 3017 3019 3022 3022 3024 3027 3029 3031 3031 3031 3031 3030 3030 3029 3029 3027 3026 3025 3024 3022 3021 3020 3018 3016 3015 3013 3009 3008 3007 3002 3001 2999 3000 2998 2997 2997
3003 3004 3005 3006 3008 3008 3008 3010 3011 3010 3011 3010 3012 3013 3013 3014 3015 3018 3023 3026 3028 3029 3030 3032 3033 3033 3033 3032 3032 3031 3029 3028 3028 3027 3025 3025 3024 3021 3018 3016 3015 3012 3009 3007 3005 3003 3002 3000 2998 2997 2996 2994 2993 2992
3014 3016 3015 3015 3015 3016 3015 3016 3016 3017 3017 3018 3019 3021 3022 3024 3025 3027 3030 3032 3033 3034 3034 3034 3036 3035 3035 3034 3033 3031 3028 3028 3028 3027 3025 3021 3021 3021 3020 3017 3013 3010 3008 3006 3004 3001 2999 2997 2995 2993 2992 2990 2989 2987
3022 3026 3026 3025 3025 3024 3023 3024 3025 3026 3027 3027 3028 3029 3030 3032 3033 3035 3037 3037 3037 3037 3037 3036 3036 3036 3035 3034 3034 3032 3029 3027 3025 3026 3024 3020 3018 3017 3015 3013 3012 3010 3004 3002 3000 2998 2996 2993 2991 2989 2987 2985 2983 2982
3031 3033 3033 3032 3032 3030 3031 3031 3032 3032 3032 3033 3034 3035 3037 3038 3040 3042 3042 3041 3040 3039 3038 3037 3036 3035 3035 3033 3031 3029 3028 3025 3023 3021 3019 3016 3014 3012 3010 3008 3006 3005 3001 2998 2996 2994 2992 2989 2987 2984 2982 2980 2978 2976
3040 3040 3038 3038 3037 3038 3037 3035 3034 3036 3037 3038 3039 3039 3041 3043 3045 3045 3044 3043 3041 3040 3039 3037 3036 3035 3033 3032 3031 3029 3027 3025 3023 3020 3018 3017 3013 3009 3007 3004 3002 2999 2996 2994 2991 2988 2986 2983 2981 2979 2977 2974 2972 2969
3046 3047 3047 3046 3044 3043 3043 3043 3042 3043 3046 3046 3044 3044 3046 3046 3047 3047 3047 3046 3045 3045 3044 3042 3039 3039 3037 3035 3033 3031 3028 3024 3021 3018 3015 3013 3011 3009 3004 3000 2997 2993 2990 2987 2985 2983 2980 2977 2975 2972 2970 2967 2965 2962
3055 3055 3054 3053 3052 3051 3052 3052 3051 3051 3051 3051 3051 3051 3052 3051 3051 3050 3049 3049 3048 3048 3046 3044 3043 3040 3037 3035 3032 3029 3026 3021 3017 3014 3010 3007 3003 3000 2997 2993 2989 2986 2983 2979 2976 2974 2971 2968 2966 2963 2960 2957 2955 2951
3063 3062 3061 3060 3059 3059 3059 3059 3059 3058 3058 3057 3057 3057 3056 3056 3054 3053 3052 3050 3051 3049 3046 3044 3041 3037 3034 3031 3027 3024 3021 3017 3012 3008 3003 2999 2995 2991 2987 2983 2980 2976 2972 2968 2965 2962 2959 2956 2954 2951 2947 2944 2940 2934
3068 3067 3067 3066 3066 3064 3064 3064 3063 3063 3063 3062 3061 3061 3061 3060 3059 3055 3053 3052 3050 3047 3044 3041 3037 3034 3030 3027 3023 3019 3014 3009 3005 3000 2995 2991 2987 2982 2978 2974 2970 2965 2962 2958 2955 2951 2947 2945 2942 2939 2935 2932 2929 2925
3071 3071 3070 3070 3069 3068 3067 3066 3066 3065 3064 3064 3063 3062 3061 3060 3058 3056 3053 3050 3047 3044 3041 3038 3034 3030 3026 3021 3017 3013 3008 3003 2998 2993 2988 2982 2976 2972 2968 2964 2960 2956 2952 2948 2945 2941 2937 2932 2929 2927 2925 2921 2918 2916